Aérodrome :
LOGIN :

S'inscrire | Disclaimer

   EN    FR    IT 

 










Légende :    VFR   VFR Marginal   IFR   IFR Intensif   IFR Très Intensif
Visi : 
Plafond : 
>= 8 km
>= 3000ft
5 à 8 km
1000 à 3000 ft
1500m à 5 km
500 à 1000 ft
800 à 1500m
200 à 500 ft
< 800m
< 200 ft
Symboles :   Orages  Brouillard  Fortes neiges  Fortes précipitations  Vent > 20 kt
SIGMETs :   Divers  Orages  Givrage  Turbulence  Onde Orograph.  Cendres Volcan.







- Altitude de l'aérodrome : 74 ft
- Code IATA : LRH
- Voir les cartes d'approche


LFBH - La Rochelle Ile de Ré

DERNIER METAR :
  • 170330Z AUTO 09007KT CAVOK 14/11 Q1020 NOSIG

METARs EXPIRÉS :
  • 170300Z AUTO 08010KT CAVOK 15/12 Q1020 NOSIG
  • 170230Z AUTO 08009KT CAVOK 15/12 Q1020 NOSIG
  • 170200Z AUTO 07009KT 9999 SCT031 BKN120 14/12 Q1021 NOSIG
  • 170130Z AUTO 08008KT 9999 OVC031 14/11 Q1021 NOSIG
  • 170100Z AUTO 06006KT 9999 OVC033 14/11 Q1022 NOSIG

TAF TAF LFBH
Valide du 17 à 00h jusqu'au 18 à 00h UTC


162300Z 1700/1724 30008KT CAVOK
BECMG 1702/1704 10008KT
BECMG 1716/1718 18008KT
ATIS : +33 5 46 00 13 92
Pas de NOTAMs connus pour ce terrain.



MET'MAP, la Météo Aéronautique d'un coup d'oeil ! - Copyright ORBIFLY Décembre 2007 - Disclaimer

ORBIFLY MET'MAP TEAM :

Programmation & Développement : Alexandra Zaïnal
Conception & Développement : Baudouin d'Aumeries
Co-Programmation & Développement : Marc-Olivier Méhu
Soutien technique & logistique : Manuel Goepfert

Contact : metmap@orbifly.com




SOURCES & CREDITS :

   NOAA